When you browse on this site, cookies collect data to enhance your experience and personalize the content and advertising you see.
Visit our Privacy Policy to learn more. By continuing to use the site, you agree to this use of cookies and data.
  • In Czech Republic
  • List of Countries
  • For 7 days
  • Water Temperature
  • Weather Map
  • Weather Widgets
  • user-avatar
    Login

    Hourly Weather Camopi

    Today, 20 September, Friday

    Time Temperature Precipitation Wind Pressure Humidity
    00:00 +25°C° 0 mm 2 mps 748 mmHg 90%
    01:00 +24°C° 0 mm 1 mps 748 mmHg 93%
    02:00 +24°C° 0 mm 1 mps 748 mmHg 96%
    03:00 +23°C° 0 mm 1 mps 748 mmHg 99%
    04:00 +23°C° 0 mm 1 mps 748 mmHg 99%
    05:00 +21°C° 0 mm 0 mps 748 mmHg 99%
    06:00 +21°C° 0 mm 0 mps 748 mmHg 99%
    07:00 +25°C° 0 mm 1 mps 748 mmHg 90%
    08:00 +27°C° 0 mm 1 mps 749 mmHg 80%
    09:00 +30°C° 0 mm 2 mps 749 mmHg 71%
    10:00 +32°C° 0 mm 2 mps 749 mmHg 62%
    11:00 +35°C° 0 mm 2 mps 749 mmHg 53%
    12:00 +37°C° 0 mm 2 mps 749 mmHg 44%
    13:00 +37°C° 0 mm 2 mps 748 mmHg 43%
    14:00 +37°C° 0 mm 2 mps 747 mmHg 42%
    15:00 +38°C° 0 mm 2 mps 747 mmHg 41%
    16:00 +36°C° 0 mm 2 mps 747 mmHg 46%
    17:00 +35°C° 0 mm 2 mps 747 mmHg 51%
    18:00 +33°C° 0 mm 1 mps 747 mmHg 56%
    19:00 +31°C° 0.1 mm 2 mps 747 mmHg 64%
    20:00 +29°C° 0.1 mm 2 mps 748 mmHg 72%
    21:00 +27°C° 0.1 mm 2 mps 749 mmHg 80%
    22:00 +27°C° 0 mm 2 mps 749 mmHg 84%
    23:00 +26°C° 0 mm 1 mps 749 mmHg 88%

    Tomorrow, 21 September, Saturday

    Time Temperature Precipitation Wind Pressure Humidity
    00:00 +26°C° 0 mm 1 mps 749 mmHg 92%
    01:00 +25°C° 0 mm 1 mps 749 mmHg 93%
    02:00 +25°C° 0 mm 1 mps 748 mmHg 95%
    03:00 +22°C° 0 mm 0 mps 748 mmHg 97%
    04:00 +22°C° 0 mm 0 mps 748 mmHg 98%
    05:00 +22°C° 0 mm 0 mps 748 mmHg 98%
    06:00 +22°C° 0 mm 0 mps 748 mmHg 98%
    07:00 +26°C° 0 mm 1 mps 748 mmHg 89%
    08:00 +28°C° 0 mm 1 mps 749 mmHg 80%
    09:00 +30°C° 0 mm 2 mps 749 mmHg 70%
    10:00 +34°C° 0 mm 2 mps 749 mmHg 59%
    11:00 +36°C° 0 mm 2 mps 748 mmHg 47%
    12:00 +39°C° 0 mm 2 mps 748 mmHg 35%
    13:00 +39°C° 0 mm 2 mps 747 mmHg 33%
    14:00 +40°C° 0 mm 2 mps 747 mmHg 30%
    15:00 +42°C° 0 mm 3 mps 746 mmHg 28%
    16:00 +38°C° 0 mm 3 mps 746 mmHg 36%
    17:00 +36°C° 0 mm 3 mps 746 mmHg 43%
    18:00 +34°C° 0 mm 3 mps 746 mmHg 51%
    19:00 +31°C° 0 mm 2 mps 747 mmHg 60%
    20:00 +29°C° 0 mm 2 mps 748 mmHg 69%
    21:00 +27°C° 0 mm 2 mps 748 mmHg 78%
    22:00 +27°C° 0 mm 1 mps 749 mmHg 82%
    23:00 +26°C° 0 mm 1 mps 749 mmHg 86%

    Day after tomorrow, 22 September, Sunday

    Time Temperature Precipitation Wind Pressure Humidity
    00:00 +25°C° 0 mm 1 mps 749 mmHg 90%
    01:00 +25°C° 0 mm 1 mps 749 mmHg 92%
    02:00 +24°C° 0 mm 1 mps 748 mmHg 94%
    03:00 +24°C° 0 mm 1 mps 748 mmHg 96%
    04:00 +24°C° 0 mm 1 mps 748 mmHg 97%
    05:00 +24°C° 0 mm 1 mps 748 mmHg 98%
    06:00 +23°C° 0 mm 1 mps 748 mmHg 99%
    07:00 +26°C° 0 mm 1 mps 749 mmHg 88%
    08:00 +28°C° 0 mm 2 mps 749 mmHg 76%
    09:00 +30°C° 0 mm 2 mps 750 mmHg 65%
    10:00 +32°C° 0 mm 2 mps 749 mmHg 55%
    11:00 +35°C° 0 mm 2 mps 749 mmHg 45%
    12:00 +38°C° 0 mm 2 mps 749 mmHg 35%
    13:00 +38°C° 0 mm 2 mps 748 mmHg 32%
    14:00 +39°C° 0 mm 2 mps 747 mmHg 29%
    15:00 +40°C° 0 mm 2 mps 747 mmHg 27%
    16:00 +38°C° 0 mm 2 mps 747 mmHg 31%
    17:00 +37°C° 0 mm 2 mps 747 mmHg 36%
    18:00 +35°C° 0 mm 2 mps 747 mmHg 41%
    19:00 +32°C° 0 mm 2 mps 747 mmHg 52%
    20:00 +30°C° 0 mm 2 mps 748 mmHg 63%
    21:00 +27°C° 0 mm 3 mps 748 mmHg 74%
    22:00 +27°C° 0 mm 2 mps 748 mmHg 79%
    23:00 +26°C° 0 mm 2 mps 749 mmHg 84%

    23 September, Monday

    Time Temperature Precipitation Wind Pressure Humidity
    00:00 +25°C° 0 mm 1 mps 749 mmHg 89%
    01:00 +25°C° 0 mm 1 mps 749 mmHg 91%
    02:00 +24°C° 0 mm 1 mps 748 mmHg 93%
    03:00 +24°C° 0 mm 1 mps 748 mmHg 94%
    04:00 +24°C° 0 mm 1 mps 748 mmHg 96%
    05:00 +21°C° 0 mm 0 mps 748 mmHg 97%
    06:00 +21°C° 0 mm 0 mps 748 mmHg 99%
    07:00 +25°C° 0 mm 1 mps 749 mmHg 88%
    08:00 +28°C° 0 mm 1 mps 749 mmHg 78%
    09:00 +30°C° 0 mm 2 mps 750 mmHg 68%
    10:00 +32°C° 0 mm 2 mps 749 mmHg 58%
    11:00 +35°C° 0 mm 2 mps 749 mmHg 49%
    12:00 +38°C° 0 mm 2 mps 749 mmHg 39%
    13:00 +39°C° 0 mm 2 mps 748 mmHg 36%
    14:00 +39°C° 0 mm 2 mps 747 mmHg 33%
    15:00 +40°C° 0 mm 2 mps 747 mmHg 30%
    16:00 +38°C° 0 mm 2 mps 747 mmHg 35%
    17:00 +37°C° 0 mm 2 mps 747 mmHg 40%
    18:00 +35°C° 0 mm 2 mps 747 mmHg 44%
    19:00 +32°C° 0 mm 2 mps 747 mmHg 53%
    20:00 +30°C° 0 mm 2 mps 748 mmHg 61%
    21:00 +28°C° 0 mm 2 mps 749 mmHg 70%
    22:00 +27°C° 0 mm 2 mps 749 mmHg 79%
    23:00 +26°C° 0 mm 1 mps 749 mmHg 88%

    24 September, Tuesday

    Time Temperature Precipitation Wind Pressure Humidity
    00:00 +24°C° 0 mm 1 mps 749 mmHg 96%
    01:00 +24°C° 0 mm 1 mps 749 mmHg 97%
    02:00 +22°C° 0 mm 0 mps 748 mmHg 98%
    03:00 +22°C° 0 mm 0 mps 748 mmHg 99%
    04:00 +22°C° 0 mm 0 mps 748 mmHg 99%
    05:00 +22°C° 0 mm 0 mps 748 mmHg 99%
    06:00 +21°C° 0 mm 0 mps 748 mmHg 99%
    07:00 +25°C° 0 mm 1 mps 749 mmHg 90%
    08:00 +27°C° 0 mm 1 mps 750 mmHg 81%
    09:00 +29°C° 0 mm 1 mps 750 mmHg 72%
    10:00 +32°C° 0 mm 1 mps 750 mmHg 60%
    11:00 +35°C° 0 mm 1 mps 749 mmHg 48%
    12:00 +37°C° 0 mm 1 mps 749 mmHg 36%
    13:00 +39°C° 0 mm 1 mps 748 mmHg 32%
    14:00 +40°C° 0 mm 1 mps 747 mmHg 29%
    15:00 +41°C° 0 mm 1 mps 747 mmHg 26%
    16:00 +37°C° 0 mm 1 mps 747 mmHg 33%
    17:00 +35°C° 0 mm 1 mps 747 mmHg 40%
    18:00 +32°C° 0 mm 2 mps 747 mmHg 48%
    19:00 +31°C° 0.1 mm 1 mps 748 mmHg 56%
    20:00 +29°C° 0.1 mm 1 mps 748 mmHg 65%
    21:00 +27°C° 0.1 mm 1 mps 749 mmHg 74%
    22:00 +26°C° 0 mm 1 mps 749 mmHg 79%
    23:00 +25°C° 0 mm 1 mps 749 mmHg 85%

    25 September, Wednesday

    Time Temperature Precipitation Wind Pressure Humidity
    00:00 +24°C° 0 mm 1 mps 750 mmHg 91%
    01:00 +24°C° 0 mm 1 mps 749 mmHg 94%
    02:00 +22°C° 0 mm 0 mps 749 mmHg 96%
    03:00 +21°C° 0 mm 0 mps 748 mmHg 99%
    04:00 +21°C° 0 mm 0 mps 748 mmHg 99%
    05:00 +21°C° 0 mm 0 mps 749 mmHg 99%
    06:00 +21°C° 0 mm 0 mps 749 mmHg 99%
    07:00 +25°C° 0 mm 1 mps 749 mmHg 89%
    08:00 +27°C° 0 mm 1 mps 750 mmHg 79%
    09:00 +29°C° 0 mm 1 mps 750 mmHg 70%
    10:00 +32°C° 0 mm 1 mps 750 mmHg 58%
    11:00 +35°C° 0 mm 1 mps 749 mmHg 46%
    12:00 +39°C° 0 mm 1 mps 749 mmHg 35%
    13:00 +39°C° 0 mm 1 mps 748 mmHg 33%
    14:00 +37°C° 0 mm 0 mps 747 mmHg 31%
    15:00 +38°C° 0 mm 0 mps 746 mmHg 29%
    16:00 +35°C° 0 mm 0 mps 746 mmHg 35%
    17:00 +33°C° 0 mm 0 mps 747 mmHg 41%
    18:00 +33°C° 0 mm 1 mps 747 mmHg 47%
    19:00 +31°C° 0.2 mm 1 mps 747 mmHg 59%
    20:00 +28°C° 0.2 mm 1 mps 747 mmHg 71%
    21:00 +26°C° 0.2 mm 2 mps 748 mmHg 84%
    22:00 +25°C° 0 mm 1 mps 748 mmHg 87%
    23:00 +25°C° 0 mm 1 mps 748 mmHg 91%
    Show more